Location: Newark
(45.5000°N, 11.4167°E)
Time: 04:05:37
(UTC+00:00)

Altair - Pass Details

Date: 25 August 2019
Orbit: 1501 x 1683 km, 47.2° (Epoch: 17 September)

Event Time Altitude Azimuth Distance (km) Brightness Sun altitude
Exits shadow 23:44:41 25° 115° (ESE) 2,831 8.7 -33.6°
Drops below altitude 10° 23:50:28 10° 80° (E) 3,809 9.7 -33.4°
Sets 23:54:07 0° 68° (ENE) 4,767 10.5 -33.3°
